Regional Weather Roundup
Issued by NWS

Home | Current Version | Previous Version | Graphics & Text | Print | Product List | Glossary On
Versions: 1 2 3 4 5 6 7 8 9 10 11 12 13 14 15 16 17 18 19 20 21 22 23 24 25 26 27 28 29 30 31 32 33 34 35 36 37 38 39 40 41 42 43 44 45 46 47 48 49 50
775
ASUS45 KBOI 240810
RWRID

IDAHO REGIONAL WEATHER ROUNDUP
NATIONAL WEATHER SERVICE BOISE ID
200 AM MDT THU MAY 24 2018

NOTE: "FAIR" INDICATES FEW OR NO CLOUDS BELOW 12000 FEET
WITH NO SIGNIFICANT WEATHER AND/OR OBSTRUCTIONS TO VISIBILITY

IDZ012-014-240900-
SOUTHWEST IDAHO


CITY           SKY/WX    TMP DP  RH WIND       PRES   REMARKS
BOISE          PTCLDY    60  55  83 E3        29.93R
CALDWELL       PTCLDY    59  54  83 SE5       29.92R
MOUNTAIN HOME  PTCLDY    57  57 100 SE6       29.93S
$$

IDZ016-017-240900-
SOUTHCENTRAL IDAHO


CITY           SKY/WX    TMP DP  RH WIND       PRES   REMARKS
BURLEY         CLEAR     58  48  69 SW8       29.98S
JEROME         CLEAR     57  49  74 S7        29.99R
TWIN FALLS     CLEAR     56  48  74 S14       29.99R
$$

IDZ019>023-240900-
SOUTHEAST IDAHO


CITY           SKY/WX    TMP DP  RH WIND       PRES   REMARKS
IDAHO FALLS    PTCLDY    49  48  97 CALM      30.04R
POCATELLO      PTCLDY    52  46  80 E3        30.01F
REXBURG        PTCLDY    49  47  93 CALM      30.04R
$$

IDZ006-010-011-018-031-032-240900-
CENTRAL IDAHO MOUNTAINS


CITY           SKY/WX    TMP DP  RH WIND       PRES   REMARKS
MCCALL         CLOUDY    55  50  83 VRB3      29.98S
HAILEY         MOCLDY    50  48  93 NW6       30.07S
STANLEY          N/A     48  46  93 CALM      30.08F
SALMON         MOCLDY    55  52  89 CALM      29.98S
CHALLIS        CLOUDY    54  52  93 S6        30.02F
$$

IDZ002-004-006-007-026-240900-
NORTHERN IDAHO


CITY           SKY/WX    TMP DP  RH WIND       PRES   REMARKS
LEWISTON       MOCLDY    68  56  65 NE9       29.85R
LOWELL           N/A     56  56 100 CALM      29.89R
COEUR D`ALENE  CLOUDY    62  56  80 SE9       29.84F
MULLAN PASS    FOG       48  48 100 VRB5      29.97R VSB 1
$$




USA.gov is the U.S. government's official web portal to all federal, state and local government web resources and services.